Über Tiantie Keji
Group: 3 satellites
Beschreibung wird geladen...
Live-Position
3D-Globus wird geladen...
Nächste Überflüge
Höhenverlauf
Altitude vs Time
uPlot chart will show altitude changes over time
Zweizeiliger Elementsatz
1 63990U 25100J 26063.12279081 .00047658 00000-0 15327-2 0 9992
2 63990 97.3711 139.7013 0006277 305.8082 54.2576 15.32075869 44743
Epoch: 4. März 2026 •
Age: 11 hours
Aktueller Status
Höhe 487.3 km
Geschwindigkeit 7.62 km/s
Subsatellitenpunkt -56.84°S,
168.85°W
Startdatum 14. Mai 2025
Alter 0.8 years
Typ other
Technische Details
Klassifizierung Payload
Masse 50.00 kg
Trockenmasse 50.00 kg
Gesamtmasse 50.00 kg
Länge 0.30 m
Durchmesser 0.30 m
Spannweite 0.30 m
Form Box + 2 pan
Hersteller GUOX
Bus-Typ XSD
Phasenstatus In Orbit
Besitzer/Staat GUOX/ZJLAB/CN
Große Konstellationen
Loading constellations...